This is the latest recevied weather packets stored in our database for station/object ZS1DFR-1. If no packets are shown the sender has not sent any weather packets the latest 10 day(s).
| Time | Temp. | Humidity | Pressure | Rain* | Wind** | Luminosity | Snow |
|---|---|---|---|---|---|---|---|
| 1777442903 | 11.67° C | 86% | 1021.7 hPa | 0 mm | - | - | - |
| 1777442003 | 10.56° C | 86% | 1021.5 hPa | 0 mm | - | - | - |
| 1777441102 | 10.56° C | 86% | 1021.5 hPa | 0 mm | - | - | - |
| 1777440202 | 11.11° C | 84% | 1021.5 hPa | 0 mm | - | - | - |
| 1777439303 | 11.11° C | 84% | 1021.5 hPa | 0 mm | - | - | - |
| 1777438402 | 10.56° C | 88% | 1021.6 hPa | 0 mm | - | - | - |
| 1777437502 | 10.56° C | 88% | 1021.6 hPa | 0 mm | - | - | - |
| 1777436603 | 11.11° C | 87% | 1021.5 hPa | 0 mm | - | - | - |
| 1777435702 | 11.11° C | 87% | 1021.5 hPa | 0 mm | - | - | - |
| 1777434802 | 11.11° C | 91% | 1021.5 hPa | 0 mm | - | - | - |
| 1777433902 | 11.11° C | 91% | 1021.5 hPa | 0 mm | - | - | - |
| 1777433002 | 10° C | 90% | 1021.4 hPa | 0 mm | - | - | - |
| 1777432102 | 10° C | 90% | 1021.4 hPa | 0 mm | - | - | - |
| 1777431202 | 10.56° C | 89% | 1021.6 hPa | 0 mm | - | - | - |
| 1777430302 | 10.56° C | 89% | 1021.6 hPa | 0 mm | - | - | - |
| 1777429402 | 11.11° C | 90% | 1021.7 hPa | 0 mm | - | - | - |
| 1777428502 | 11.11° C | 90% | 1021.7 hPa | 0 mm | - | - | - |
| 1777427602 | 10.56° C | 89% | 1022.2 hPa | 0 mm | - | - | - |
| 1777426702 | 10.56° C | 89% | 1022.2 hPa | 0 mm | - | - | - |
| 1777425839 | 11.11° C | 89% | 1022.5 hPa | 0 mm | - | - | - |
| 1777424902 | 11.11° C | 89% | 1022.5 hPa | 0 mm | - | - | - |
| 1777424002 | 11.67° C | 89% | 1022.6 hPa | 0 mm | - | - | - |
| 1777423102 | 11.67° C | 89% | 1022.6 hPa | 0 mm | - | - | - |
| 1777422202 | 11.11° C | 89% | 1022.9 hPa | 0 mm | - | - | - |
| 1777421302 | 11.11° C | 89% | 1022.9 hPa | 0 mm | - | - | - |
* Rain latest hour (hover to see other rain measurements)
** Current wind speed in m/s (hover to see current wind gust speed)